Wind_Speed
22 22 22 21 22 22 22 22 21 22 21 20 20 20 20 20 20 19 19 20 20 20 20 20 19 19 19 19 19 19 19 18 18 18 18 17 17 17 17 17 17 17 17
24 24 24 24 24 24 24 23 23 23 23 22 22 21 21 21 21 21 22 22 22 22 20 21 21 20 21 21 21 21 21 20 20 20 20 20 19 19 19 19 19 19 19
26 26 27 26 26 26 26 26 25 24 24 23 24 24 24 24 23 23 23 23 23 23 23 22 22 21 22 22 22 22 22 22 22 22 22 22 21 21 21 21 22 22 22
28 28 27 27 27 26 26 26 26 25 25 25 25 25 26 26 26 25 25 25 25 25 25 23 23 23 23 23 24 23 23 23 23 24 24 23 23 23 23 24 24 24 24
30 29 29 28 28 28 28 28 27 27 27 27 27 27 27 27 27 28 28 28 27 26 26 25 25 25 24 24 24 25 25 25 24 25 25 25 26 26 26 26 27 27 27
30 30 30 29 29 28 29 29 29 28 28 28 28 28 29 29 29 29 28 29 28 28 27 27 27 26 26 26 26 26 26 27 27 27 27 27 27 27 28 29 29 29 29
31 31 31 31 31 30 30 30 30 30 30 29 30 29 30 30 29 28 29 29 30 30 30 30 29 28 28 27 28 28 28 29 29 29 28 28 29 29 30 30 30 31 31
31 32 33 33 32 32 32 32 32 32 32 31 31 31 31 31 31 30 30 30 29 30 31 31 30 30 29 30 29 30 30 31 30 31 31 31 31 32 32 32 32 32 32
32 32 33 34 34 35 34 34 34 34 34 33 33 32 31 31 31 31 32 32 32 33 33 32 31 31 31 31 31 32 32 33 33 33 33 33 32 31 31 32 33 34 35
32 32 33 33 34 35 35 36 36 35 35 34 34 34 33 32 33 32 32 33 34 33 33 34 33 32 32 33 33 34 34 34 35 36 35 34 33 33 33 33 34 35 36
32 33 33 34 34 34 34 35 35 35 35 35 35 35 34 33 34 34 33 34 34 34 34 34 34 33 33 33 34 34 35 36 36 37 37 36 36 35 35 34 34 34 35
32 33 33 33 33 33 33 33 34 34 33 33 34 34 34 34 34 35 35 34 34 34 34 34 35 35 34 34 35 35 36 37 36 36 36 36 36 36 37 37 36 36 37
32 32 32 33 33 33 33 33 33 33 33 33 32 33 34 35 35 35 35 35 35 35 34 34 34 35 36 35 35 35 35 36 35 35 35 35 35 35 36 37 37 36 36
31 31 31 32 32 32 32 32 33 33 33 33 33 33 33 33 34 35 34 34 34 34 34 33 34 35 36 36 36 36 36 35 35 35 35 35 35 35 35 35 35 35 35
30 30 30 30 30 30 31 31 31 31 31 31 32 32 33 33 33 33 34 35 35 34 34 34 34 35 36 37 36 36 36 35 35 35 36 36 36 35 35 34 34 35 35
29 30 30 30 30 30 30 30 30 30 30 30 30 31 32 32 31 32 33 33 34 35 34 34 33 34 36 37 36 35 35 35 35 36 36 35 34 34 34 34 35 35 34
29 29 29 29 30 29 28 28 27 28 28 28 29 29 29 30 31 32 32 32 32 33 34 34 34 33 33 33 33 34 34 34 34 34 34 33 33 33 34 34 34 34 34
28 28 28 28 28 27 26 26 27 27 27 27 28 28 28 29 30 30 31 31 31 32 32 33 32 32 32 31 30 30 31 32 33 33 33 33 33 33 33 33 33 34 34
28 28 28 27 27 26 26 26 26 26 26 26 27 27 27 27 28 28 29 29 29 29 29 30 30 29 29 29 29 29 30 29 29 30 31 31 32 33 33 33 33 32 31
27 27 27 26 26 25 25 25 25 24 24 25 25 25 25 25 25 25 26 26 26 27 27 27 27 27 27 27 28 28 28 28 29 28 29 30 30 30 31 31 30 29 29
25 25 24 24 24 23 23 23 23 23 23 23 23 23 23 23 23 23 24 24 24 24 25 24 24 25 25 26 26 26 26 27 28 28 28 28 27 27 27 26 26 25 25
22 22 22 22 21 21 20 20 21 21 21 20 20 20 21 21 21 21 21 21 21 21 21 21 21 22 22 22 23 23 24 25 24 25 25 24 23 23 23 23 23 22 22
20 19 19 19 18 18 17 17 17 18 19 18 18 19 19 19 19 18 18 18 18 17 18 19 19 19 19 20 20 20 21 20 21 21 20 20 20 20 20 19 19 19 19
17 17 16 16 15 15 14 14 13 14 15 15 16 16 15 15 16 15 15 15 15 15 16 16 16 16 16 16 17 17 17 18 18 18 17 17 17 17 16 17 17 17 18
14 13 13 13 12 12 12 12 11 12 12 12 13 13 12 12 12 13 13 13 13 13 13 13 13 14 14 14 15 15 14 14 14 14 13 14 14 14 15 15 15 16 16
12 11 11 11 10 10 9 10 10 10 10 10 9 9 10 10 10 10 10 10 10 10 10 11 11 11 11 11 11 11 12 11 11 11 12 12 12 12 13 13 13 13 13
Wind_Direction
270 270 271 274 272 271 270 270 272 271 270 269 270 270 271 271 269 266 262 260 262 262 262 262 262 263 263 263 262 262 263 264 265 264 263 264 264 263 263 264 265 267 269
271 270 272 272 272 271 271 271 271 269 268 268 268 268 269 270 270 267 262 261 261 262 264 265 263 264 265 264 263 263 262 262 265 266 264 265 265 264 265 266 266 267 269
274 274 275 275 275 273 272 272 273 270 267 267 268 269 268 268 269 266 266 264 262 262 264 266 265 265 266 266 264 263 262 262 264 267 267 266 266 265 266 267 268 268 269
274 276 276 275 275 275 274 272 272 272 270 268 268 269 269 269 269 267 267 267 265 262 263 265 266 268 268 268 264 261 262 263 265 267 267 265 265 265 267 268 269 269 269
275 275 275 275 276 275 273 272 273 273 272 270 270 270 269 269 269 268 267 267 267 264 263 264 266 267 266 266 264 263 264 264 265 267 268 267 266 266 267 268 268 269 269
276 276 275 274 274 275 273 273 273 272 272 271 270 270 270 269 269 269 269 267 266 264 265 266 267 267 265 264 264 265 265 266 266 269 270 269 269 269 269 269 270 270 270
278 278 276 274 274 275 274 273 272 271 271 272 269 269 269 269 268 268 268 268 268 267 268 268 268 268 266 265 265 265 265 267 267 269 270 270 271 271 271 270 271 271 272
279 278 276 276 275 274 275 273 272 271 270 270 270 269 268 269 267 266 267 267 269 270 270 270 267 268 269 266 265 265 267 267 270 270 270 270 272 272 272 272 272 272 273
279 276 275 274 275 274 273 273 273 271 270 270 269 269 268 268 267 265 264 265 268 271 271 271 269 268 268 265 267 268 268 269 271 271 270 270 271 273 273 273 274 274 274
279 277 276 276 277 274 272 272 271 270 270 269 268 268 268 267 267 266 266 266 268 270 270 270 271 271 269 268 270 270 270 270 272 273 271 271 272 272 273 274 275 275 275
279 278 277 277 277 275 273 271 269 268 269 268 267 267 268 269 268 267 266 267 268 269 270 269 269 269 270 270 271 270 270 271 272 274 273 273 273 273 273 275 277 276 277
279 279 278 277 276 275 274 272 269 269 268 267 267 267 267 269 268 268 267 267 267 268 268 267 269 268 268 270 272 272 272 272 272 271 272 273 274 274 275 276 277 277 277
281 281 279 278 277 276 275 273 272 269 269 268 267 266 267 267 266 267 268 267 266 266 267 267 269 269 269 270 272 274 274 275 273 272 273 275 276 275 275 276 277 278 279
284 283 281 281 279 277 276 275 272 272 271 270 268 267 267 267 266 266 268 268 267 267 267 267 268 270 271 272 272 273 275 277 275 274 275 276 277 276 276 277 277 278 279
285 284 283 283 282 281 278 275 274 273 272 272 270 269 269 269 268 267 268 268 268 269 268 269 269 271 272 274 274 274 276 276 276 275 275 275 276 277 277 279 279 280 280
287 286 285 284 283 282 280 277 274 273 273 272 271 271 270 270 270 270 270 270 270 270 272 272 272 273 272 272 273 273 274 275 275 275 275 275 277 279 280 280 281 281 280
288 287 286 286 284 282 280 279 277 275 274 273 273 274 273 271 271 270 270 271 272 273 275 273 273 273 273 274 273 272 272 274 275 276 276 276 277 279 280 280 281 281 281
287 285 286 287 286 284 282 280 279 277 276 275 275 275 273 272 272 272 272 272 273 275 276 276 276 275 275 275 275 274 274 275 275 277 280 279 278 279 280 280 279 280 281
287 287 287 286 286 285 282 280 279 276 275 274 274 274 274 275 275 275 275 275 276 277 277 275 275 275 277 278 278 278 277 277 276 278 280 280 281 281 281 281 280 280 281
289 288 288 287 286 284 281 279 277 275 274 273 273 273 275 276 276 277 277 276 276 276 276 275 275 276 278 278 278 278 277 278 277 278 279 281 282 282 282 281 280 281 281
289 288 288 287 286 284 281 278 276 274 275 274 274 274 275 275 276 277 278 278 276 276 276 276 275 276 277 277 278 277 276 276 277 278 278 281 281 283 285 283 283 282 282
292 289 290 289 287 285 282 275 273 272 273 273 273 274 275 276 278 279 279 279 278 278 279 279 277 278 279 278 277 276 276 278 279 280 280 279 280 281 282 284 284 284 286
295 294 293 291 288 285 281 276 274 273 273 273 273 273 275 276 278 280 280 280 280 280 281 280 282 283 283 280 278 279 279 280 282 284 284 281 280 282 284 286 285 285 285
297 297 296 293 291 288 283 280 275 274 273 273 272 272 273 275 276 281 282 282 282 281 283 285 285 286 286 284 283 282 281 281 284 286 285 285 284 284 285 287 288 288 288
300 299 298 299 295 293 287 284 278 276 278 278 277 275 274 273 275 279 282 284 284 284 287 288 289 288 288 289 289 286 285 285 285 286 287 289 289 287 288 290 290 290 289
303 301 299 299 298 300 294 287 282 281 282 283 281 279 277 279 280 278 280 286 288 289 291 293 294 294 294 297 296 293 293 293 292 291 292 294 295 293 292 291 291 294 295
Height
5871 5870 5871 5870 5869 5869 5869 5869 5869 5870 5870 5870 5871 5871 5871 5872 5872 5873 5872 5873 5873 5874 5874 5875 5876 5877 5877 5878 5879 5879 5880 5880 5881 5881 5882 5882 5882 5882 5883 5883 5883 5883 5884
5866 5865 5866 5865 5865 5864 5864 5864 5864 5865 5865 5865 5866 5867 5867 5867 5868 5868 5868 5869 5869 5869 5870 5871 5872 5872 5873 5874 5875 5875 5876 5876 5876 5877 5877 5878 5878 5878 5879 5879 5879 5879 5879
5860 5860 5860 5860 5860 5859 5859 5859 5859 5860 5860 5860 5861 5862 5862 5862 5862 5862 5863 5864 5865 5865 5866 5866 5867 5868 5868 5869 5870 5870 5871 5871 5872 5872 5873 5873 5873 5874 5874 5874 5874 5875 5875
5854 5854 5854 5854 5854 5854 5854 5854 5854 5854 5855 5855 5856 5856 5856 5857 5857 5857 5858 5859 5860 5860 5861 5861 5862 5862 5863 5864 5864 5865 5866 5866 5867 5867 5867 5868 5868 5868 5868 5869 5869 5869 5869
5849 5848 5848 5848 5848 5848 5848 5848 5848 5848 5848 5849 5849 5850 5850 5851 5851 5852 5853 5853 5854 5854 5855 5856 5856 5856 5857 5858 5859 5860 5860 5861 5861 5861 5862 5862 5862 5862 5862 5863 5863 5863 5863
5842 5841 5842 5842 5841 5841 5841 5841 5841 5841 5841 5842 5842 5843 5844 5844 5845 5846 5846 5847 5847 5848 5849 5850 5851 5850 5851 5852 5853 5853 5854 5854 5855 5855 5855 5856 5856 5856 5856 5856 5856 5856 5856
5836 5835 5835 5835 5835 5835 5835 5835 5833 5834 5834 5835 5836 5836 5837 5837 5838 5839 5839 5840 5841 5842 5842 5843 5844 5844 5845 5845 5847 5847 5848 5848 5848 5849 5849 5849 5849 5850 5849 5849 5849 5849 5849
5829 5828 5828 5828 5828 5828 5827 5827 5827 5827 5827 5828 5828 5829 5830 5831 5831 5831 5832 5833 5834 5834 5835 5836 5837 5838 5838 5839 5840 5840 5841 5841 5841 5842 5842 5842 5842 5842 5842 5842 5842 5842 5842
5822 5821 5821 5820 5820 5820 5820 5819 5819 5819 5819 5820 5820 5821 5822 5823 5823 5824 5825 5825 5826 5827 5827 5828 5829 5830 5831 5831 5832 5833 5834 5834 5834 5834 5835 5835 5835 5834 5834 5834 5834 5834 5834
5815 5814 5813 5812 5812 5811 5811 5811 5811 5811 5811 5811 5812 5813 5814 5815 5816 5816 5817 5818 5818 5819 5820 5820 5821 5822 5823 5824 5824 5825 5826 5826 5826 5826 5826 5827 5827 5827 5826 5826 5826 5825 5825
5807 5806 5805 5804 5803 5802 5802 5802 5802 5802 5803 5803 5804 5805 5806 5806 5807 5809 5809 5810 5810 5811 5812 5812 5813 5814 5815 5816 5816 5817 5817 5818 5818 5818 5818 5818 5818 5818 5818 5818 5817 5817 5816
5799 5797 5796 5796 5795 5794 5794 5793 5793 5793 5794 5795 5796 5796 5797 5798 5799 5800 5801 5801 5802 5803 5804 5804 5805 5806 5806 5807 5808 5808 5809 5809 5809 5809 5809 5810 5810 5810 5810 5809 5809 5808 5808
5790 5789 5788 5787 5786 5785 5785 5785 5785 5785 5786 5787 5787 5788 5788 5789 5790 5791 5792 5793 5794 5795 5796 5796 5797 5797 5798 5799 5799 5799 5800 5800 5800 5800 5801 5801 5800 5800 5800 5800 5800 5800 5799
5782 5781 5780 5779 5778 5777 5777 5777 5777 5777 5778 5779 5779 5780 5780 5781 5782 5783 5783 5784 5785 5786 5787 5788 5788 5788 5789 5790 5790 5790 5791 5791 5791 5791 5791 5792 5792 5791 5791 5791 5791 5790 5790
5775 5773 5772 5771 5770 5769 5769 5769 5769 5769 5770 5770 5771 5771 5772 5773 5773 5774 5774 5775 5777 5777 5778 5779 5779 5779 5780 5780 5781 5781 5782 5782 5782 5782 5782 5782 5782 5782 5782 5781 5781 5781 5780
5767 5766 5765 5764 5763 5762 5761 5761 5761 5761 5762 5762 5763 5763 5764 5764 5765 5765 5766 5766 5768 5769 5769 5770 5770 5770 5771 5771 5771 5772 5773 5773 5773 5773 5773 5773 5773 5773 5773 5772 5772 5771 5770
5760 5759 5757 5756 5755 5754 5753 5753 5753 5753 5754 5754 5755 5755 5756 5756 5757 5757 5758 5758 5759 5760 5760 5761 5761 5761 5762 5763 5763 5763 5763 5764 5764 5764 5764 5764 5764 5763 5763 5763 5762 5762 5761
5752 5751 5750 5749 5748 5747 5746 5746 5746 5746 5746 5747 5747 5748 5748 5749 5749 5749 5750 5750 5751 5751 5752 5752 5752 5753 5753 5754 5754 5754 5755 5755 5755 5755 5755 5755 5755 5754 5754 5754 5753 5752 5752
5745 5744 5743 5742 5740 5739 5739 5739 5739 5739 5739 5740 5740 5741 5741 5741 5742 5742 5742 5743 5743 5744 5744 5744 5745 5745 5745 5746 5746 5746 5747 5747 5747 5747 5746 5746 5745 5745 5745 5745 5744 5744 5743
5737 5736 5735 5734 5733 5733 5732 5732 5732 5732 5732 5733 5733 5734 5734 5734 5735 5735 5735 5736 5736 5736 5737 5737 5738 5738 5738 5738 5738 5738 5738 5739 5739 5739 5738 5737 5737 5736 5736 5736 5735 5735 5734
5731 5730 5729 5727 5727 5726 5726 5725 5725 5725 5726 5726 5727 5727 5728 5728 5728 5729 5729 5729 5730 5730 5730 5731 5731 5731 5731 5731 5731 5731 5731 5731 5730 5730 5730 5730 5729 5729 5728 5728 5728 5727 5727
5725 5723 5722 5721 5721 5720 5719 5719 5719 5720 5720 5720 5721 5722 5722 5722 5723 5723 5723 5723 5724 5724 5724 5724 5724 5724 5724 5724 5724 5724 5724 5724 5723 5723 5723 5723 5722 5722 5721 5721 5720 5720 5720
5719 5718 5717 5716 5716 5715 5714 5714 5714 5714 5715 5715 5715 5716 5717 5717 5717 5718 5718 5718 5718 5718 5719 5719 5718 5718 5718 5717 5717 5717 5717 5717 5717 5717 5716 5716 5716 5716 5715 5715 5714 5714 5713
5715 5714 5713 5712 5711 5711 5710 5710 5710 5710 5710 5710 5711 5711 5712 5712 5713 5713 5714 5713 5714 5714 5713 5713 5713 5713 5712 5712 5712 5712 5712 5712 5712 5711 5711 5710 5710 5710 5710 5709 5709 5708 5707
5711 5710 5709 5709 5708 5707 5707 5706 5707 5706 5706 5707 5707 5707 5708 5708 5709 5709 5710 5710 5709 5709 5709 5709 5708 5708 5708 5708 5708 5708 5707 5707 5707 5706 5706 5706 5705 5705 5705 5704 5703 5703 5702
5708 5707 5706 5706 5705 5705 5704 5704 5703 5703 5704 5704 5704 5704 5705 5705 5706 5706 5706 5706 5706 5706 5706 5706 5705 5705 5705 5704 5704 5704 5704 5703 5703 5702 5702 5702 5701 5701 5701 5700 5700 5699 5698